Temperature
11 12 12 12 12 11 12 12 11 12 12 12 12 12 12 12 12 12 12 12 12 12 12 12 12 12 12 12 12 12 12 12 12 12 11 11 11 11 11 11 10 10 10
11 11 11 11 11 11 11 11 11 11 11 11 11 11 11 11 11 11 12 11 11 11 11 11 11 11 12 11 11 11 11 11 11 11 11 11 11 10 10 10 10 10 10
11 11 11 11 11 11 11 11 11 11 11 11 11 11 11 11 11 11 11 11 11 11 11 11 11 11 11 11 11 11 11 11 11 11 10 10 10 10 10 10 10 10 10
11 11 11 11 11 11 11 11 10 10 11 11 11 11 11 11 11 11 11 11 11 11 11 11 11 11 11 11 11 10 10 10 10 10 10 10 10 10 9 9 9 9 9
10 10 10 10 10 10 10 10 10 10 10 10 10 11 10 10 10 10 10 10 11 11 11 11 11 11 10 10 10 10 10 10 10 10 9 9 9 9 9 9 9 9 9
9 10 10 10 10 10 10 10 10 10 10 10 10 10 10 10 10 10 10 10 10 10 10 10 10 10 10 10 10 10 10 10 10 9 9 9 9 9 9 9 9 9 8
9 9 9 9 10 10 10 9 9 10 10 10 10 10 10 10 10 10 10 10 10 10 10 10 10 10 10 10 10 10 10 9 9 9 9 9 8 8 8 8 8 8 8
8 9 9 9 9 9 9 9 9 9 9 9 9 9 9 9 9 9 9 9 9 9 9 9 9 10 10 10 10 9 9 9 9 9 9 8 8 8 8 8 8 8 8
8 8 8 8 9 8 9 9 9 9 9 9 9 9 9 9 9 9 9 9 9 9 9 9 9 9 9 9 9 9 9 9 9 8 8 8 8 7 7 7 7 7 7
7 8 8 8 8 8 8 8 8 8 9 9 9 9 9 9 9 8 8 8 9 9 9 9 9 9 9 9 9 9 9 8 8 8 8 8 7 7 7 7 7 7 7
7 7 7 7 7 7 7 8 8 8 8 8 9 9 9 9 9 9 8 8 8 8 8 8 8 9 9 9 9 9 8 8 8 8 7 7 7 7 7 7 7 7 7
6 7 7 7 7 7 7 7 7 7 8 8 8 8 8 8 8 9 9 8 8 8 8 8 8 8 8 8 8 8 8 8 8 7 7 7 7 7 7 7 7 7 7
5 6 6 6 6 6 7 7 7 7 7 7 8 8 8 8 8 8 8 8 7 7 7 8 8 8 8 8 8 8 8 8 7 7 7 7 7 7 7 7 7 7 6
5 5 5 6 6 6 6 6 6 6 7 7 7 7 7 7 8 8 8 8 7 7 7 7 7 7 7 7 7 7 7 7 7 7 7 7 7 7 7 7 7 6 6
4 4 5 5 5 5 6 6 6 6 6 6 7 7 7 7 7 7 8 8 7 7 6 7 7 7 7 7 7 7 7 7 7 7 7 7 7 6 6 6 6 6 6
4 4 4 5 5 5 5 5 5 5 6 6 6 6 6 7 7 7 7 7 7 7 7 7 7 7 7 7 7 7 7 7 7 6 6 6 6 6 6 6 6 6 5
3 4 4 4 4 5 5 5 5 5 5 5 5 6 6 6 6 7 7 7 7 7 7 7 7 6 6 6 6 6 6 6 6 6 6 6 6 6 6 5 5 5 5
3 3 3 4 4 4 4 4 4 4 4 5 5 5 5 6 6 6 6 6 6 6 6 7 6 6 6 6 6 6 6 6 6 6 6 5 6 5 5 5 5 5 5
2 2 3 3 4 4 4 4 4 4 4 4 4 5 5 5 5 5 6 6 6 6 6 6 6 6 6 5 5 5 5 5 5 5 5 5 5 5 5 5 4 4 4
1 2 2 2 3 3 3 3 3 3 4 4 4 4 4 5 5 5 5 5 5 5 5 5 6 5 5 5 5 5 5 5 5 5 5 5 5 4 4 4 4 4 4
1 1 1 2 2 2 2 2 3 3 3 3 4 4 4 4 4 5 5 5 5 5 5 5 5 5 5 4 4 4 4 4 4 4 4 4 4 4 4 4 4 4 4
0 0 1 1 1 2 2 2 2 2 3 3 3 4 4 4 4 4 4 4 4 4 4 5 5 4 4 4 4 4 4 4 4 4 4 4 4 4 4 4 3 3 3
-1 -0 0 0 1 1 1 1 1 1 2 2 3 3 3 3 4 4 4 4 4 4 4 4 4 4 4 4 4 3 3 3 4 4 3 3 3 3 3 3 3 3 3
-1 -1 -0 -0 0 0 1 1 1 1 1 2 2 2 3 3 3 3 3 3 3 3 4 3 4 4 4 4 4 4 3 3 3 3 3 2 3 2 3 2 2 2 2
-2 -2 -1 -1 -1 -0 -0 -0 0 0 1 1 1 2 2 2 2 2 2 2 2 3 3 3 3 3 3 3 3 3 2 2 2 2 2 2 2 2 2 2 2 2 1
-3 -3 -2 -2 -2 -1 -1 -1 -0 -0 0 1 1 1 1 1 2 2 2 2 2 2 2 2 2 3 3 3 2 2 2 2 2 1 1 1 1 1 1 1 1 1 1
Wind_Speed
2 3 3 4 5 5 5 4 3 4 4 6 5 6 7 8 10 10 9 10 11 11 10 10 11 12 12 12 12 11 11 11 11 11 12 13 13 14 14 14 14 13 13
2 2 2 3 3 5 4 4 3 4 4 4 4 6 6 7 9 10 10 10 10 10 9 10 10 11 11 11 10 10 10 10 11 11 11 12 12 13 12 12 12 13 13
2 2 2 2 3 5 5 4 4 4 3 3 3 5 6 7 8 9 9 9 9 9 9 9 10 10 10 10 10 10 11 11 11 11 11 12 12 12 12 12 12 12 12
3 2 2 2 3 4 4 3 3 3 3 3 3 2 4 6 7 8 8 9 9 8 9 9 9 10 9 9 9 9 10 10 10 10 10 11 11 11 11 11 11 11 11
3 2 2 2 3 3 3 2 3 3 3 3 3 3 3 3 5 7 7 8 9 9 9 9 9 9 9 8 8 9 9 9 9 9 9 9 9 9 9 9 9 9 9
2 3 2 2 3 2 2 2 3 3 3 3 4 3 2 2 4 5 6 7 8 8 8 8 8 8 8 8 8 8 8 8 8 8 8 8 8 8 8 7 7 7 8
2 2 2 2 2 2 3 3 3 4 3 3 3 3 2 3 3 3 4 5 6 6 7 7 8 7 7 7 7 7 7 7 7 7 7 7 7 6 6 6 5 6 6
2 2 2 1 1 1 2 3 3 3 3 3 3 3 2 1 1 2 2 3 3 5 5 6 7 7 8 7 7 7 7 7 6 6 6 6 6 5 5 4 4 4 4
1 2 2 1 1 2 2 2 3 4 3 2 2 3 3 3 2 1 2 2 2 2 3 5 5 6 7 7 7 6 6 6 6 6 6 6 5 4 4 3 3 3 4
1 1 2 1 1 1 2 2 2 3 4 3 2 1 1 3 3 2 1 1 2 2 2 3 4 5 7 7 7 6 6 6 6 5 5 5 4 4 3 2 2 2 2
2 1 1 1 1 1 1 2 2 2 3 3 3 1 1 1 3 3 3 2 1 1 2 2 3 5 6 7 7 7 7 7 6 6 5 4 4 4 3 2 1 1 1
2 2 1 1 0 0 1 2 2 3 3 3 3 2 2 2 3 3 3 3 3 2 2 2 3 4 6 6 6 8 8 8 7 6 6 5 4 4 3 2 2 1 0
2 2 2 1 1 1 1 1 1 2 3 3 3 3 2 2 2 2 3 3 2 1 2 1 2 4 6 6 6 8 9 9 8 7 6 6 5 4 3 3 2 2 1
2 3 3 2 1 1 2 1 2 2 2 3 3 3 2 2 2 2 3 3 2 1 2 3 2 4 5 6 6 7 7 8 8 7 7 6 6 5 4 4 3 3 2
2 3 3 2 2 2 2 2 2 2 2 3 3 3 3 2 2 2 2 4 4 4 4 3 2 3 5 6 6 7 7 7 7 7 6 6 6 6 6 5 4 3 3
2 2 3 2 2 2 1 2 2 3 3 3 3 3 3 3 3 3 3 3 3 4 3 3 3 3 5 6 6 7 7 7 8 7 7 7 7 7 7 6 5 5 4
2 2 3 2 2 2 2 2 3 3 3 3 3 4 4 3 3 3 3 3 2 2 3 2 2 3 4 4 4 6 7 7 7 8 8 8 7 7 7 7 7 6 5
2 3 3 3 2 2 2 2 3 3 4 4 4 4 4 3 4 4 4 4 3 3 4 4 2 3 3 5 4 4 5 6 6 7 8 8 8 7 8 8 7 7 6
3 3 3 3 3 3 3 3 3 4 4 5 5 5 5 4 4 3 4 4 3 3 3 4 3 2 2 3 3 3 3 3 5 6 7 8 8 8 8 8 8 8 7
3 3 3 4 3 3 3 4 4 4 4 5 5 6 6 6 6 5 5 5 4 3 3 4 4 3 3 3 4 3 3 2 2 4 5 6 7 9 9 9 9 9 8
4 3 3 3 3 3 4 4 4 4 5 5 5 5 6 6 7 7 5 6 5 4 4 4 4 3 3 4 5 4 4 3 2 2 2 3 4 5 7 8 9 9 9
3 3 4 4 4 4 6 7 6 5 5 6 6 6 6 6 7 7 8 8 8 7 6 5 4 5 6 5 4 4 4 3 3 3 2 3 4 3 5 7 8 9 9
4 4 4 4 5 6 8 8 8 5 5 6 6 6 6 6 7 6 6 7 8 9 9 7 7 7 7 7 7 6 6 5 4 4 3 4 3 4 5 7 8 9 9
5 5 4 4 5 6 8 8 8 6 6 6 7 7 7 7 7 7 6 6 6 6 7 7 8 8 7 7 9 8 6 3 1 2 3 3 3 2 3 6 8 9 8
6 5 5 5 5 6 8 9 8 5 6 7 7 7 7 7 8 8 7 6 5 4 5 7 7 8 9 10 9 5 5 4 3 3 2 2 2 1 2 3 7 8 8
6 6 6 5 5 6 8 8 8 5 6 6 6 7 9 9 9 9 8 7 7 5 3 3 4 5 6 8 11 8 8 6 3 3 3 3 2 1 2 2 3 5 6
Wind_Direction
114 122 130 142 148 143 144 145 134 110 103 113 117 106 102 100 100 103 99 94 98 101 104 109 114 112 111 107 103 101 99 96 92 88 86 84 82 78 76 71 68 67 66
96 118 121 126 127 134 147 141 124 111 97 104 107 106 105 106 106 109 112 103 98 99 102 106 109 110 113 111 107 103 100 98 94 92 90 88 85 80 76 73 70 66 63
97 121 127 127 120 134 138 130 116 109 106 106 109 105 102 102 104 109 114 116 108 100 103 109 110 109 110 110 109 106 101 98 96 94 92 89 87 83 78 74 70 67 64
102 106 122 123 117 132 132 136 128 118 113 111 107 99 100 104 104 107 107 112 115 113 107 107 110 110 111 112 111 109 105 102 100 98 94 92 88 83 80 76 71 68 64
97 92 112 114 122 120 122 133 128 127 118 102 109 98 90 106 111 110 104 103 108 116 119 117 114 114 114 114 116 116 113 108 106 103 99 96 90 85 84 79 74 68 64
88 78 95 115 122 123 123 120 125 122 124 116 103 91 85 102 103 105 109 106 107 117 122 126 124 120 120 119 118 118 118 117 115 110 104 101 96 89 86 82 78 71 64
59 81 96 121 123 139 144 135 131 127 127 118 108 97 56 68 94 95 97 106 106 114 122 123 125 128 125 124 123 126 127 125 122 120 117 110 103 95 88 85 82 75 66
63 65 83 127 117 123 139 139 133 137 152 154 145 137 125 73 56 89 97 110 114 112 118 126 131 131 128 125 125 128 133 134 131 130 129 121 111 107 100 92 87 82 69
56 67 60 80 116 146 163 165 155 144 165 188 169 157 153 174 146 116 131 130 131 118 117 122 129 136 135 133 135 142 145 147 147 146 139 133 126 119 113 101 94 94 79
27 82 77 61 94 132 168 179 165 169 164 183 210 230 166 144 147 155 178 161 149 145 136 131 136 143 142 142 145 152 159 160 158 158 152 149 149 141 130 114 98 94 87
6 63 90 77 77 148 176 188 185 190 186 187 190 190 129 123 139 151 176 181 169 174 159 149 141 146 154 155 156 163 171 173 174 176 174 170 171 160 149 145 122 85 70
348 5 37 81 56 8 197 204 204 212 210 198 194 183 166 166 173 153 161 173 182 191 184 156 149 156 157 156 167 172 179 182 188 193 194 192 185 176 172 179 185 175 53
317 317 350 316 254 247 239 226 213 226 220 205 200 197 185 190 172 155 153 166 165 177 176 184 174 165 161 162 169 179 187 188 191 199 202 198 189 185 190 198 212 227 247
298 317 323 319 282 226 224 215 224 227 225 215 210 192 188 195 175 162 163 159 158 191 197 198 186 177 166 169 177 177 183 188 192 199 201 201 194 188 194 197 210 222 212
313 322 324 310 298 242 212 205 218 217 214 218 213 202 192 194 182 173 160 165 167 188 214 196 182 186 171 174 182 181 181 188 193 195 198 197 194 192 196 197 201 203 204
307 296 309 301 306 304 247 210 223 216 209 222 213 203 205 197 184 173 171 185 182 183 205 201 190 177 172 177 184 185 191 190 196 196 195 196 199 197 198 201 203 201 206
308 280 288 280 269 270 272 224 224 213 214 218 211 206 213 201 191 185 179 185 192 181 196 200 174 166 168 173 177 187 191 188 192 198 200 199 200 201 204 205 206 206 207
299 286 283 266 254 251 255 242 232 219 220 217 207 211 218 207 200 191 185 188 196 192 188 190 187 177 185 185 178 179 183 191 193 199 204 206 206 207 209 209 209 209 213
282 283 281 263 250 248 243 245 242 232 227 223 210 208 214 203 206 202 193 191 197 196 189 184 188 186 191 184 182 186 175 183 197 201 206 214 215 215 215 213 211 212 217
277 266 272 268 258 257 245 242 245 241 237 231 219 210 208 204 204 202 201 197 191 190 191 179 181 182 186 185 176 182 195 199 202 198 209 218 222 221 220 218 216 218 223
287 269 269 268 265 260 249 236 234 241 239 236 225 215 211 208 208 205 206 197 190 192 196 191 188 189 193 183 193 192 199 201 219 187 185 212 213 216 219 221 222 225 230
282 272 263 256 253 258 263 258 245 241 242 235 229 221 215 209 211 212 211 206 198 194 200 203 205 201 204 200 194 191 188 193 225 198 193 230 207 214 223 221 228 230 230
287 275 267 251 246 252 259 259 251 244 244 236 228 222 220 217 212 213 211 210 210 205 201 203 208 210 205 198 191 196 202 206 221 201 192 227 210 227 226 229 231 232 234
286 274 271 263 258 259 260 258 255 246 246 241 230 221 216 211 212 209 208 212 217 214 209 211 213 213 211 199 195 198 200 198 207 201 184 218 220 235 241 236 234 235 235
288 284 274 261 258 259 259 257 256 242 241 241 234 222 213 210 212 208 208 211 218 231 227 222 225 219 213 206 194 177 179 186 219 225 202 189 211 263 256 238 233 232 237
288 287 280 268 260 259 261 257 253 240 241 241 235 223 218 216 211 204 206 206 213 222 212 218 219 212 206 198 191 188 188 194 204 216 202 180 193 181 252 252 220 231 246
Height
1534 1536 1538 1540 1542 1544 1545 1547 1549 1551 1553 1555 1557 1558 1559 1561 1562 1563 1564 1566 1567 1568 1569 1569 1570 1570 1571 1572 1572 1573 1573 1574 1574 1574 1574 1574 1574 1574 1574 1574 1574 1573 1573
1532 1534 1536 1538 1540 1542 1544 1546 1548 1550 1552 1553 1555 1557 1559 1560 1562 1563 1564 1566 1567 1568 1569 1569 1570 1571 1571 1572 1572 1573 1573 1574 1574 1574 1575 1575 1575 1575 1574 1574 1574 1574 1574
1530 1532 1534 1536 1538 1540 1542 1545 1547 1549 1551 1552 1554 1556 1558 1560 1561 1562 1564 1565 1566 1567 1568 1569 1570 1571 1571 1572 1572 1573 1573 1574 1574 1574 1575 1575 1575 1575 1575 1574 1574 1574 1574
1528 1530 1532 1534 1536 1538 1541 1543 1545 1547 1549 1551 1553 1555 1557 1558 1560 1561 1563 1564 1565 1566 1568 1569 1569 1570 1571 1572 1572 1573 1573 1573 1574 1574 1574 1574 1575 1575 1574 1574 1574 1574 1574
1525 1527 1529 1531 1534 1536 1538 1541 1543 1545 1547 1549 1551 1553 1555 1557 1559 1560 1562 1563 1564 1565 1566 1567 1568 1569 1570 1571 1572 1572 1572 1573 1573 1574 1574 1574 1574 1574 1574 1574 1574 1574 1573
1523 1525 1527 1529 1531 1533 1536 1538 1541 1543 1545 1547 1549 1552 1554 1555 1557 1559 1560 1562 1563 1564 1565 1566 1567 1568 1569 1570 1570 1571 1572 1572 1573 1573 1573 1573 1573 1573 1573 1573 1573 1573 1573
1520 1522 1524 1526 1529 1531 1533 1536 1538 1541 1543 1545 1548 1550 1552 1554 1556 1557 1558 1560 1561 1562 1564 1565 1565 1566 1567 1568 1569 1570 1570 1571 1572 1572 1572 1573 1573 1572 1572 1572 1572 1572 1572
1518 1520 1521 1523 1525 1528 1531 1533 1535 1538 1540 1543 1545 1547 1550 1553 1554 1555 1557 1558 1559 1560 1562 1563 1564 1565 1565 1566 1567 1568 1569 1570 1571 1571 1571 1572 1571 1571 1571 1571 1571 1571 1571
1515 1517 1519 1521 1523 1525 1528 1530 1533 1534 1537 1540 1543 1545 1547 1548 1551 1553 1554 1556 1557 1558 1560 1561 1562 1563 1564 1564 1566 1567 1567 1568 1569 1570 1570 1570 1570 1570 1570 1570 1570 1570 1570
1512 1514 1515 1518 1520 1522 1525 1527 1530 1532 1534 1536 1539 1542 1544 1545 1547 1549 1552 1553 1554 1556 1557 1559 1560 1561 1562 1562 1564 1565 1565 1566 1567 1568 1569 1569 1569 1569 1569 1569 1569 1569 1569
1509 1510 1513 1514 1517 1519 1521 1524 1526 1529 1531 1533 1535 1538 1540 1542 1544 1546 1547 1550 1551 1553 1554 1556 1557 1558 1559 1560 1561 1562 1563 1564 1565 1566 1566 1567 1567 1567 1567 1567 1567 1567 1567
1506 1507 1510 1511 1513 1516 1518 1520 1522 1525 1527 1530 1532 1534 1536 1538 1540 1542 1544 1545 1547 1550 1551 1553 1554 1555 1556 1557 1558 1559 1560 1561 1562 1563 1564 1564 1565 1565 1565 1565 1565 1565 1565
1502 1504 1506 1508 1510 1512 1514 1517 1519 1521 1523 1526 1528 1530 1532 1534 1537 1538 1540 1542 1544 1546 1548 1549 1550 1552 1553 1554 1555 1556 1557 1558 1559 1560 1561 1562 1562 1562 1562 1562 1562 1562 1562
1499 1501 1503 1504 1506 1509 1511 1513 1515 1517 1519 1521 1524 1526 1528 1530 1533 1535 1537 1539 1540 1542 1544 1545 1547 1548 1550 1551 1552 1553 1554 1555 1556 1556 1557 1558 1559 1559 1559 1559 1559 1559 1559
1496 1497 1499 1501 1503 1505 1507 1509 1511 1513 1515 1517 1519 1522 1524 1526 1528 1531 1532 1535 1537 1538 1539 1541 1542 1544 1546 1548 1549 1550 1551 1551 1552 1553 1554 1554 1555 1556 1556 1556 1556 1556 1556
1493 1494 1495 1497 1498 1501 1503 1504 1506 1508 1510 1513 1515 1517 1520 1522 1524 1526 1528 1530 1532 1534 1534 1536 1538 1540 1542 1544 1545 1546 1547 1547 1549 1549 1550 1551 1551 1552 1552 1553 1553 1553 1553
1489 1490 1491 1493 1494 1496 1498 1500 1502 1504 1506 1508 1510 1512 1515 1517 1519 1521 1523 1525 1527 1530 1530 1532 1534 1536 1538 1539 1541 1542 1543 1543 1544 1545 1546 1547 1547 1548 1548 1549 1549 1549 1549
1485 1487 1488 1489 1490 1492 1494 1495 1497 1499 1502 1504 1506 1508 1510 1512 1514 1517 1519 1521 1523 1525 1526 1527 1529 1531 1533 1535 1536 1537 1538 1539 1540 1541 1542 1542 1543 1544 1544 1545 1545 1545 1545
1482 1483 1483 1484 1485 1487 1489 1491 1493 1495 1497 1499 1501 1503 1505 1507 1509 1511 1514 1516 1518 1520 1522 1523 1524 1526 1528 1530 1531 1532 1533 1534 1535 1536 1537 1538 1539 1539 1540 1540 1540 1541 1541
1477 1478 1479 1480 1481 1483 1485 1487 1489 1491 1493 1495 1497 1498 1500 1502 1504 1507 1509 1511 1513 1515 1517 1518 1519 1521 1523 1525 1526 1527 1528 1529 1530 1531 1532 1533 1534 1535 1535 1536 1536 1536 1536
1472 1473 1474 1475 1476 1478 1480 1482 1484 1486 1488 1489 1491 1493 1495 1497 1499 1502 1504 1506 1508 1510 1512 1513 1514 1516 1517 1519 1520 1521 1523 1524 1525 1526 1527 1528 1529 1529 1530 1530 1531 1531 1531
1468 1469 1469 1470 1471 1473 1475 1478 1480 1481 1482 1484 1485 1487 1490 1492 1494 1496 1498 1500 1502 1504 1505 1507 1509 1510 1511 1513 1515 1516 1518 1518 1519 1521 1522 1522 1523 1524 1524 1525 1526 1526 1526
1463 1464 1464 1465 1466 1468 1470 1472 1474 1476 1477 1478 1480 1482 1483 1485 1488 1490 1492 1495 1496 1498 1500 1502 1503 1504 1506 1508 1509 1511 1512 1513 1513 1515 1516 1516 1517 1518 1519 1520 1521 1521 1521
1459 1459 1459 1460 1461 1463 1465 1467 1469 1470 1471 1473 1474 1476 1478 1480 1482 1484 1486 1488 1490 1492 1494 1496 1498 1499 1501 1503 1504 1506 1507 1509 1510 1511 1511 1511 1512 1512 1514 1514 1515 1516 1516
1454 1454 1454 1455 1456 1457 1459 1461 1463 1464 1465 1466 1468 1470 1472 1474 1476 1479 1481 1482 1484 1485 1488 1490 1492 1494 1496 1498 1499 1501 1502 1503 1503 1504 1506 1506 1506 1507 1508 1508 1509 1510 1510
1449 1449 1450 1450 1451 1452 1454 1455 1457 1458 1459 1460 1462 1464 1466 1468 1470 1472 1474 1476 1477 1479 1481 1483 1485 1487 1489 1491 1493 1494 1495 1497 1497 1498 1500 1501 1502 1503 1502 1502 1504 1504 1504